Weather History for Eagle River, WI

Change the Weather History Date:

Thursday, August 8, 2013

  Actual Average Record
Temperature  
Mean Temperature 56 °F -  
Max Temperature 72 °F 75 °F 91 °F (2001)
Min Temperature 40 °F 55 °F 40 °F (2013)
Degree Days  
Heating Degree Days 9    
Growing Degree Days 6 (Base 50)    
Moisture  
Dew Point 49 °F    
Average Humidity 80    
Maximum Humidity 100    
Minimum Humidity 44    
Precipitation  
Precipitation 0.08 in - - ()
Sea Level Pressure  
Sea Level Pressure 30.03 in    
Wind  
Wind Speed 2 mph (WSW)    
Max Wind Speed 12 mph    
Max Gust Speed 18 mph    
Visibility 8 miles    
Events Fog , Rain    
Averages and records for this station are not official NWS values.
T = Trace of Precipitation, MM = Missing Value Source: NWS Daily Summary

Daily Weather History Graph

Daily Weather History Graph

Search for Another Location

Airport:

Trip Planner

Search our weather history database for the weather conditions in past years. The results will help you decide how hot, cold, wet, or windy it might be!

Date:

Astronomy

Aug. 08, 2013 Rise Set
Actual Time 5:48 AM CDT 8:16 PM CDT
Civil Twilight 5:14 AM CDT 8:49 PM CDT
Nautical Twilight 4:32 AM CDT 9:31 PM CDT
Astronomical Twilight 3:45 AM CDT 10:18 PM CDT
Moon 7:44 AM CDT (8/8) 8:43 PM CDT (8/8)
Length of Visible Light 15h 34m
Length of Day
14h 27m
Waxing Crescent, 3% of the Moon is Illuminated
Aug 8
Waxing Crescent
Aug 14
First Quarter
Aug 20
Full
Aug 28
Last Quarter
Sep 5
New

Hourly Weather History & Observations

Time (CDT) Temp. Dew Point Humidity Pressure Visibility Wind Dir Wind Speed Gust Speed Precip Events Conditions
12:15 AM 46.0 °F 46.0 °F 100% 30.04 in 0.2 mi Calm Calm - N/A Fog Fog
12:35 AM 46.6 °F 46.6 °F 100% 30.03 in 10.0 mi Calm Calm - N/A   Scattered Clouds
12:55 AM 46.2 °F 46.2 °F 100% 30.03 in 0.5 mi Calm Calm - N/A Fog Fog
1:15 AM 46.0 °F 46.0 °F 100% 30.03 in 0.8 mi Calm Calm - N/A   Mostly Cloudy
1:35 AM 44.1 °F 44.1 °F 100% 30.03 in 0.2 mi Calm Calm - N/A Fog Fog
1:55 AM 44.1 °F 44.1 °F 100% 30.04 in 0.5 mi Calm Calm - N/A Fog Fog
2:15 AM 44.6 °F 44.6 °F 100% 30.05 in 3.0 mi Calm Calm - N/A   Scattered Clouds
2:35 AM 43.7 °F 43.7 °F 100% 30.05 in 0.5 mi Calm Calm - N/A Fog Fog
2:55 AM 43.2 °F 43.2 °F 100% 30.05 in 4.0 mi Calm Calm - N/A   Clear
3:15 AM 42.8 °F 42.8 °F 100% 30.06 in 0.5 mi Calm Calm - N/A Fog Fog
3:35 AM 42.8 °F 42.8 °F 100% 30.05 in 0.8 mi Calm Calm - N/A   Overcast
3:55 AM 42.1 °F 42.1 °F 100% 30.05 in 0.2 mi Calm Calm - N/A Fog Fog
4:15 AM 41.9 °F 41.9 °F 100% 30.05 in 0.2 mi Calm Calm - N/A Fog Fog
4:35 AM 40.8 °F 40.8 °F 100% 30.04 in 0.5 mi Calm Calm - N/A Fog Fog
4:55 AM 41.7 °F 41.7 °F 100% 30.04 in - Calm Calm - N/A   Overcast
5:15 AM 41.2 °F 41.2 °F 100% 30.04 in - Calm Calm - N/A   Mostly Cloudy
5:35 AM 41.5 °F 41.5 °F 100% 30.04 in - Calm Calm - N/A   Mostly Cloudy
5:55 AM 42.4 °F 42.4 °F 100% 30.04 in 2.0 mi Calm Calm - N/A   Clear
6:15 AM 42.1 °F 42.1 °F 100% 30.04 in 0.8 mi Calm Calm - N/A   Mostly Cloudy
6:35 AM 41.7 °F 41.7 °F 100% 30.03 in 10.0 mi Calm Calm - N/A   Scattered Clouds
6:55 AM 43.9 °F 43.9 °F 100% 30.04 in 10.0 mi Calm Calm - N/A   Scattered Clouds
7:15 AM 46.9 °F 46.9 °F 100% 30.05 in 10.0 mi Calm Calm - N/A   Clear
7:35 AM 50.4 °F 50.4 °F 100% 30.04 in 10.0 mi Calm Calm - N/A   Clear
7:55 AM 52.3 °F 52.3 °F 100% 30.05 in 10.0 mi Calm Calm - N/A   Clear
8:15 AM 54.5 °F 54.5 °F 100% 30.05 in 10.0 mi Calm Calm - N/A   Clear
8:35 AM 57.0 °F 53.2 °F 87% 30.05 in 10.0 mi Calm Calm - N/A   Clear
8:55 AM 59.4 °F 50.5 °F 73% 30.05 in 10.0 mi Calm Calm - N/A   Clear
9:15 AM 61.3 °F 49.8 °F 66% 30.05 in 10.0 mi SW 4.6 mph - N/A   Scattered Clouds
9:35 AM 61.3 °F 47.7 °F 61% 30.06 in 10.0 mi SW 4.6 mph - N/A   Overcast
9:55 AM 63.7 °F 48.2 °F 57% 30.06 in 10.0 mi SW 5.8 mph - N/A   Overcast
10:15 AM 65.5 °F 48.4 °F 54% 30.06 in 10.0 mi WSW 9.2 mph - N/A   Overcast
10:35 AM 65.3 °F 48.0 °F 54% 30.06 in 10.0 mi WSW 6.9 mph - N/A   Overcast
10:55 AM 66.6 °F 48.7 °F 53% 30.06 in 10.0 mi WSW 10.4 mph - N/A   Overcast
11:15 AM 67.1 °F 47.8 °F 50% 30.05 in 10.0 mi SW 10.4 mph - N/A   Mostly Cloudy
11:35 AM 67.8 °F 46.2 °F 46% 30.05 in 10.0 mi WSW 9.2 mph 16.1 mph N/A   Clear
11:55 AM 68.5 °F 46.0 °F 44% 30.04 in 10.0 mi SW 9.2 mph - N/A   Clear
12:15 PM 69.4 °F 48.2 °F 47% 30.04 in 10.0 mi WSW 11.5 mph 17.3 mph N/A   Scattered Clouds
12:35 PM 69.1 °F 47.3 °F 46% 30.04 in 10.0 mi West 8.1 mph - N/A   Mostly Cloudy
12:55 PM 68.9 °F 48.4 °F 48% 30.04 in 10.0 mi SW 5.8 mph - N/A   Overcast
1:15 PM 68.5 °F 48.7 °F 49% 30.04 in 10.0 mi WSW 11.5 mph - N/A   Overcast
1:35 PM 69.1 °F 49.1 °F 49% 30.04 in 10.0 mi WSW 8.1 mph - N/A   Overcast
1:55 PM 69.1 °F 49.1 °F 49% 30.03 in 10.0 mi West 6.9 mph - N/A   Mostly Cloudy
2:15 PM 69.1 °F 49.1 °F 49% 30.03 in 10.0 mi West 8.1 mph - N/A   Overcast
2:35 PM 68.7 °F 48.7 °F 49% 30.03 in 10.0 mi WSW 9.2 mph - N/A   Overcast
2:55 PM 69.6 °F 47.8 °F 46% 30.02 in 10.0 mi West 10.4 mph - N/A   Mostly Cloudy
3:15 PM 70.0 °F 47.3 °F 44% 30.02 in 10.0 mi West 9.2 mph - N/A   Overcast
3:35 PM 69.6 °F 48.2 °F 46% 30.01 in 10.0 mi WSW 9.2 mph - N/A   Overcast
3:55 PM 70.7 °F 48.9 °F 46% 30.01 in 10.0 mi WNW 6.9 mph - N/A   Overcast
4:15 PM 69.8 °F 50.2 °F 50% 30.01 in 10.0 mi WNW 6.9 mph - N/A   Overcast
4:35 PM 71.4 °F 49.1 °F 45% 30.00 in 10.0 mi WNW 8.1 mph 16.1 mph N/A   Overcast
4:55 PM 72.3 °F 49.1 °F 44% 30.00 in 10.0 mi WNW 11.5 mph 16.1 mph N/A   Mostly Cloudy
5:15 PM 68.9 °F 48.7 °F 49% 30.01 in 10.0 mi WNW 6.9 mph - N/A   Mostly Cloudy
5:35 PM 64.6 °F 53.8 °F 68% 30.02 in 10.0 mi WNW 5.8 mph 18.4 mph N/A Rain Light Rain
5:55 PM 62.8 °F 55.0 °F 76% 30.01 in 10.0 mi Calm Calm - N/A   Overcast
6:15 PM 63.0 °F 55.2 °F 76% 30.01 in 10.0 mi NNW 3.5 mph - N/A   Overcast
6:35 PM 63.0 °F 56.1 °F 78% 30.01 in 10.0 mi NNW 4.6 mph - N/A   Overcast
6:55 PM 63.3 °F 55.0 °F 74% 30.01 in 10.0 mi Calm Calm - N/A   Overcast
7:15 PM 62.4 °F 55.2 °F 77% 30.03 in 10.0 mi West 6.9 mph - N/A Rain Rain
7:35 PM 60.3 °F 57.4 °F 90% 30.02 in 4.0 mi NW 3.5 mph - 0.06 in Rain Rain
7:55 PM 59.9 °F 58.6 °F 96% 30.02 in 10.0 mi Calm Calm - 0.07 in Rain Light Rain
8:15 PM 59.7 °F 58.6 °F 96% 30.02 in 10.0 mi Calm Calm - N/A   Overcast
8:35 PM 59.0 °F 58.6 °F 99% 30.01 in 10.0 mi Calm Calm - 0.01 in   Overcast
8:55 PM 57.9 °F 57.9 °F 100% 30.01 in 2.0 mi Calm Calm - 0.01 in   Overcast
9:15 PM 57.6 °F 57.6 °F 100% 30.01 in 5.0 mi South 3.5 mph - N/A Rain Light Rain
9:35 PM 58.1 °F 58.1 °F 100% 30.01 in 10.0 mi South 3.5 mph - N/A   Overcast
9:55 PM 58.1 °F 58.1 °F 100% 30.01 in 10.0 mi South 3.5 mph - N/A   Overcast
10:15 PM 57.7 °F 57.7 °F 100% 30.01 in 10.0 mi Calm Calm - N/A   Overcast
10:35 PM 57.6 °F 57.6 °F 100% 30.00 in 10.0 mi Calm Calm - N/A   Scattered Clouds
10:55 PM 55.9 °F 55.9 °F 100% 30.00 in 1.8 mi Calm Calm - N/A   Scattered Clouds
11:15 PM 56.3 °F 56.3 °F 100% 30.00 in 10.0 mi Calm Calm - N/A   Mostly Cloudy
11:35 PM 55.6 °F 55.6 °F 100% 29.99 in 7.0 mi Calm Calm - N/A   Overcast
11:55 PM 56.1 °F 56.1 °F 100% 29.99 in 7.0 mi Calm Calm - N/A   Mostly Cloudy